Martinsville, VA

7:06 PM EDT on June 27, 2017 (GMT -0400)
Blue Ridge

Weather History for KMTV - April, 2014

Change the Weather History Date:

Saturday, April 5, 2014

  Actual Average (KINT) Record (KINT)
Temperature  
Mean Temperature 56 °F -  
Max Temperature 66 °F 65 °F 82 °F (1985)
Min Temperature 46 °F 45 °F 28 °F (1972)
Degree Days  
Heating Degree Days 9    
Growing Degree Days 6 (Base 50)    
Moisture  
Dew Point 34 °F    
Average Humidity 42    
Maximum Humidity 63    
Minimum Humidity 25    
Precipitation  
Precipitation 0.00 in - - ()
Sea Level Pressure  
Sea Level Pressure 30.00 in    
Wind  
Wind Speed 8 mph (NNW)    
Max Wind Speed 21 mph    
Max Gust Speed 33 mph    
Visibility 10 miles    
Events      
Averages and records for this station are not official NWS values.
T = Trace of Precipitation, MM = Missing Value Source: NWS Daily Summary

Daily Weather History Graph

Daily Weather History Graph

Search for Another Location

Airport or City:

Trip Planner

Search our weather history database for the weather conditions in past years. The results will help you decide how hot, cold, wet, or windy it might be!

Date:

Astronomy

Apr. 05, 2014 Rise Set
Actual Time 7:00 AM EDT 7:45 PM EDT
Civil Twilight 6:34 AM EDT 8:11 PM EDT
Nautical Twilight 6:03 AM EDT 8:42 PM EDT
Astronomical Twilight 5:31 AM EDT 9:14 PM EDT
Moon 11:12 AM EDT (4/5) 12:48 AM EDT (4/5)
Length of Visible Light 13h 37m
Length of Day
12h 45m
Waxing Crescent, 34% of the Moon is Illuminated
Apr 5
Waxing Crescent
Apr 7
First Quarter
Apr 15
Full
Apr 22
Last Quarter
Apr 29
New

Hourly Weather History & Observations

Time (EDT) Temp. Dew Point Humidity Pressure Visibility Wind Dir Wind Speed Gust Speed Precip Events Conditions
12:15 AM 66.2 °F 46.2 °F 49% 29.83 in 10.0 mi West 3.5 mph - N/A   Clear
12:35 AM 64.9 °F 46.6 °F 51% 29.84 in 10.0 mi WNW 3.5 mph - N/A   Clear
12:55 AM 64.4 °F 46.8 °F 53% 29.85 in 10.0 mi West 3.5 mph - N/A   Clear
1:15 AM 64.2 °F 46.8 °F 53% 29.85 in 10.0 mi West 3.5 mph - N/A   Clear
1:35 AM 63.5 °F 46.8 °F 54% 29.85 in 10.0 mi West 3.5 mph - N/A   Clear
1:55 AM 61.7 °F 47.5 °F 60% 29.85 in 10.0 mi Calm Calm - N/A   Clear
2:15 AM 61.7 °F 48.0 °F 61% 29.85 in 10.0 mi WNW 3.5 mph - N/A   Mostly Cloudy
2:35 AM 61.9 °F 48.4 °F 61% 29.86 in 10.0 mi WNW 3.5 mph - N/A   Mostly Cloudy
2:55 AM 61.5 °F 48.9 °F 63% 29.86 in 10.0 mi NW 9.2 mph - N/A   Overcast
3:15 AM 61.9 °F 48.6 °F 62% 29.87 in 10.0 mi NW 5.8 mph - N/A   Overcast
3:35 AM 61.5 °F 45.1 °F 55% 29.88 in 10.0 mi NW 9.2 mph 16.1 mph N/A   Scattered Clouds
3:55 AM 60.1 °F 43.9 °F 55% 29.88 in 10.0 mi NW 8.1 mph - N/A   Clear
4:15 AM 59.5 °F 42.1 °F 52% 29.88 in 10.0 mi NW 10.4 mph - N/A   Clear
4:35 AM 58.8 °F 41.2 °F 52% 29.89 in 10.0 mi NW 9.2 mph - N/A   Clear
4:55 AM 58.1 °F 40.5 °F 52% 29.90 in 10.0 mi NW 11.5 mph 20.7 mph N/A   Clear
5:15 AM 57.4 °F 40.3 °F 53% 29.90 in 10.0 mi NW 12.7 mph 24.2 mph N/A   Clear
5:35 AM 56.3 °F 39.4 °F 53% 29.91 in 10.0 mi NW 12.7 mph 21.9 mph N/A   Clear
5:55 AM 55.4 °F 38.1 °F 52% 29.92 in 10.0 mi NW 16.1 mph 21.9 mph N/A   Clear
6:15 AM 54.5 °F 37.4 °F 52% 29.93 in 10.0 mi NW 19.6 mph 33.4 mph N/A   Clear
6:35 AM 54.0 °F 36.7 °F 52% 29.95 in 10.0 mi NW 20.7 mph 29.9 mph N/A   Clear
6:55 AM 53.6 °F 36.1 °F 52% 29.97 in 10.0 mi NW 9.2 mph 17.3 mph N/A   Clear
7:15 AM 50.9 °F 35.6 °F 56% 29.98 in 10.0 mi NNW 13.8 mph - N/A   Clear
7:35 AM 50.0 °F 34.3 °F 55% 30.00 in 10.0 mi North 13.8 mph 17.3 mph N/A   Clear
7:55 AM 49.3 °F 33.1 °F 54% 30.01 in 10.0 mi NNW 10.4 mph - N/A   Clear
8:15 AM 49.3 °F 32.5 °F 53% 30.02 in 10.0 mi NNW 11.5 mph - N/A   Clear
8:35 AM 49.6 °F 31.3 °F 49% 30.02 in 10.0 mi NNW 12.7 mph 17.3 mph N/A   Clear
8:55 AM 50.4 °F 31.3 °F 48% 30.03 in 10.0 mi NNW 12.7 mph 17.3 mph N/A   Clear
9:15 AM 52.0 °F 31.6 °F 46% 30.03 in 10.0 mi NNW 13.8 mph 21.9 mph N/A   Clear
9:35 AM 52.2 °F 31.6 °F 46% 30.03 in 10.0 mi NW 12.7 mph 20.7 mph N/A   Clear
9:55 AM 53.4 °F 31.6 °F 44% 30.03 in 10.0 mi NNW 11.5 mph 16.1 mph N/A   Clear
10:15 AM 53.8 °F 30.2 °F 41% 30.04 in 10.0 mi NW 12.7 mph 21.9 mph N/A   Clear
10:35 AM 54.3 °F 29.7 °F 39% 30.04 in 10.0 mi NNW 13.8 mph 18.4 mph N/A   Clear
10:55 AM 55.4 °F 29.7 °F 37% 30.04 in 10.0 mi NW 16.1 mph 20.7 mph N/A   Clear
11:15 AM 56.1 °F 28.9 °F 35% 30.05 in 10.0 mi NNW 16.1 mph 19.6 mph N/A   Clear
11:35 AM 56.7 °F 29.1 °F 35% 30.05 in 10.0 mi NNW 16.1 mph 20.7 mph N/A   Clear
11:55 AM 56.8 °F 28.9 °F 34% 30.05 in 10.0 mi NW 17.3 mph 20.7 mph N/A   Clear
12:15 PM 57.7 °F 28.6 °F 33% 30.05 in 10.0 mi NW 12.7 mph 19.6 mph N/A   Clear
12:35 PM 59.2 °F 29.7 °F 33% 30.04 in 10.0 mi NW 11.5 mph 16.1 mph N/A   Clear
12:55 PM 60.1 °F 31.1 °F 33% 30.03 in 10.0 mi NNW 13.8 mph 23.0 mph N/A   Clear
1:15 PM 60.1 °F 29.1 °F 31% 30.03 in 10.0 mi NNW 10.4 mph 16.1 mph N/A   Clear
1:35 PM 61.3 °F 30.0 °F 31% 30.03 in 10.0 mi NW 10.4 mph 17.3 mph N/A   Clear
1:55 PM 62.4 °F 29.7 °F 29% 30.03 in 10.0 mi NW 11.5 mph 18.4 mph N/A   Clear
2:15 PM 62.6 °F 29.1 °F 28% 30.03 in 10.0 mi NW 11.5 mph 18.4 mph N/A   Clear
2:35 PM 63.1 °F 30.2 °F 29% 30.02 in 10.0 mi NNW 8.1 mph 16.1 mph N/A   Clear
2:55 PM 63.3 °F 29.7 °F 28% 30.02 in 10.0 mi North 9.2 mph 19.6 mph N/A   Clear
3:15 PM 63.9 °F 30.9 °F 29% 30.02 in 10.0 mi North 13.8 mph 18.4 mph N/A   Clear
3:35 PM 64.6 °F 29.8 °F 27% 30.02 in 10.0 mi NNW 9.2 mph 16.1 mph N/A   Clear
3:55 PM 64.9 °F 30.7 °F 28% 30.01 in 10.0 mi NW 10.4 mph 16.1 mph N/A   Clear
4:15 PM 64.6 °F 30.4 °F 28% 30.01 in 10.0 mi NNW 10.4 mph - N/A   Clear
4:35 PM 65.3 °F 29.8 °F 26% 30.02 in 10.0 mi North 8.1 mph - N/A   Clear
4:55 PM 65.3 °F 29.5 °F 26% 30.02 in 10.0 mi NNE 11.5 mph - N/A   Clear
5:15 PM 64.9 °F 28.6 °F 25% 30.02 in 10.0 mi North 9.2 mph 17.3 mph N/A   Clear
5:35 PM 64.6 °F 28.4 °F 26% 30.02 in 10.0 mi North 9.2 mph 16.1 mph N/A   Clear
5:55 PM 64.4 °F 28.6 °F 26% 30.03 in 10.0 mi North 10.4 mph - N/A   Clear
6:15 PM 63.3 °F 27.7 °F 26% 30.03 in 10.0 mi North 9.2 mph - N/A   Clear
6:35 PM 62.6 °F 27.7 °F 27% 30.04 in 10.0 mi North 8.1 mph - N/A   Clear
6:55 PM 62.4 °F 28.2 °F 27% 30.04 in 10.0 mi North 11.5 mph - N/A   Clear
7:15 PM 59.9 °F 28.0 °F 30% 30.04 in 10.0 mi North 6.9 mph - N/A   Clear
7:35 PM 58.5 °F 27.5 °F 31% 30.06 in 10.0 mi North 8.1 mph - N/A   Clear
7:55 PM 57.0 °F 27.7 °F 33% 30.06 in 10.0 mi NNW 5.8 mph - N/A   Clear
8:15 PM 56.1 °F 28.0 °F 34% 30.07 in 10.0 mi North 5.8 mph - N/A   Clear
8:35 PM 55.4 °F 28.2 °F 35% 30.08 in 10.0 mi NNW 8.1 mph - N/A   Clear
8:55 PM 54.9 °F 28.0 °F 36% 30.09 in 10.0 mi NNW 5.8 mph - N/A   Clear
9:15 PM 53.4 °F 28.6 °F 38% 30.10 in 10.0 mi North 4.6 mph - N/A   Clear
9:35 PM 52.9 °F 28.9 °F 40% 30.11 in 10.0 mi North 3.5 mph - N/A   Clear
9:55 PM 52.0 °F 29.1 °F 41% 30.12 in 10.0 mi North 3.5 mph - N/A   Clear
10:15 PM 51.6 °F 29.1 °F 42% 30.12 in 10.0 mi Calm Calm - N/A   Clear
10:35 PM 46.9 °F 31.1 °F 54% 30.13 in 10.0 mi NNE 3.5 mph - N/A   Clear
10:55 PM 46.8 °F 29.5 °F 51% 30.13 in 10.0 mi NNE 4.6 mph - N/A   Clear
11:15 PM 48.2 °F 30.9 °F 51% 30.13 in 10.0 mi North 5.8 mph - N/A   Clear
11:35 PM 48.4 °F 30.6 °F 50% 30.13 in 10.0 mi North 5.8 mph - N/A   Clear
11:55 PM 46.8 °F 30.2 °F 53% 30.14 in 10.0 mi North 4.6 mph - N/A   Clear